Regional Weather Roundup
Issued by NWS San Angelo, TX

Home | Current Version | Previous Version | Text Only | Print | Product List | Glossary On
Versions: 1 2 3 4 5 6 7 8 9 10 11 12 13 14 15 16 17 18 19 20 21 22 23 24 25 26 27 28 29 30 31 32 33 34 35 36 37 38 39 40 41 42 43 44 45 46 47 48 49 50
000
ASUS44 KSJT 300210
RWRSJT
WEST CENTRAL TEXAS REGIONAL WEATHER ROUNDUP
NATIONAL WEATHER SERVICE SAN ANGELO TX
800 PM CST THU JAN 29 2015

NOTE: "FAIR" INDICATES FEW OR NO CLOUDS BELOW 12,000 FEET WITH NO
SIGNIFICANT WEATHER AND/OR OBSTRUCTIONS TO VISIBILITY.

TXZ049-054-064>066-071>073-076>078-098-099-113-114-127-128-139-140-
154-155-168>170-300300
...LOCATIONS ACROSS WEST CENTRAL TEXAS...

CITY           SKY/WX    TMP DP  RH WIND       PRES   REMARKS
SAN ANGELO     CLOUDY    56  35  45 NE18      30.41R
ABILENE        CLOUDY    50  30  46 N9        30.47R
DYESS AFB      CLOUDY    50  31  48 NE12      30.46R
JUNCTION       MOCLDY    60  38  43 NE12      30.37R
SWEETWATER     CLOUDY    49  30  47 NE13      30.49R
BROWNWOOD      CLOUDY    54  32  43 N10G16    30.43R
COLEMAN        CLOUDY    53  36  53 N16       30.43R
SONORA         PTCLDY    57  37  47 N13       30.41R
OZONA          FAIR      55  36  47 NE22G28   30.41R
BRADY          MOCLDY    55  36  47 N10       30.40R
$$

TEXAS PANHANDLE/OKLAHOMA PANHANDLE

CITY           SKY/WX    TMP DP  RH WIND       PRES   REMARKS
AMARILLO       CLOUDY    40  29  64 N3        30.50R
BORGER         CLOUDY    45  26  47 NE3       30.49S
CANADIAN       CLOUDY    45  27  50 NE5       30.49S
DALHART        CLOUDY    44  30  57 E6        30.49R
DUMAS          CLOUDY    40  29  63 E5        30.49R WCI  37
GUYMON         NOT AVBL
HEREFORD       CLOUDY    42  32  67 CALM      30.50R
PAMPA          CLOUDY    41  28  59 NE5       30.49S WCI  38
PERRYTON         N/A     40  25  54 NE7       30.49R WCI  36
$$

SOUTHERN PANHANDLE/SOUTH PLAINS/ROLLING PLAINS

CITY           SKY/WX    TMP DP  RH WIND       PRES   REMARKS
LUBBOCK        CLOUDY    46  25  43 NE5       30.47R
SNYDER         CLOUDY   N/A N/A N/A NE10      30.47R
CHILDRESS      CLOUDY    49  27  42 N7        30.50R
SEMINOLE       CLOUDY    49  25  39 NE7       30.47R
$$

PERMIAN BASIN

CITY           SKY/WX    TMP DP  RH WIND       PRES   REMARKS
MIDLAND        CLOUDY    53  26  35 NE17      30.44R
ODESSA         CLOUDY    52  26  36 E15       30.45R
WINK           CLOUDY    55  31  39 NE12      30.42R
$$

FAR WEST/SOUTHWEST MOUNTAINS/TRANS PECOS

CITY           SKY/WX    TMP DP  RH WIND       PRES   REMARKS
ALPINE         CLOUDY    53  36  52 NE17G24   30.46R
DRYDEN           N/A     63  37  38 NE14      30.32R
EL PASO        CLOUDY    53  33  46 E16G24    30.33R
FORT STOCKTON  CLOUDY    55  36  48 NE14      30.40R
GUADALUPE PASS LGT RAIN  39  35  86 NE38G45   30.40R WCI  26
MARFA          CLOUDY    46  39  76 N14G22    30.41R
PECOS          CLOUDY    55  35  47 NE9       30.42R
$$

DALLAS/FORT WORTH METROPLEX

CITY           SKY/WX    TMP DP  RH WIND       PRES   REMARKS
DFW AIRPORT    CLOUDY    54  31  41 N20G25    30.41R
FTW MEACHAM    CLOUDY    54  32  43 N15       30.42R
DAL-EXECUTIVE  CLOUDY    57  31  37 N17G28    30.40R
GRAND PRAIRIE  CLOUDY    56  34  44 N15G21    30.42R
ADDISON        CLEAR     54  30  40 N10G18    30.42
MESQUITE       CLEAR     52  36  54 N10       30.42R
LANCASTER      CLOUDY    55  31  41 N12       30.42R
$$

NORTH CENTRAL TEXAS

CITY           SKY/WX    TMP DP  RH WIND       PRES   REMARKS
SHRMAN/DENISON CLOUDY    49  35  58 N16G22    30.45R
GAINESVILLE    CLOUDY    49  31  48 N13       30.47R
BRIDGEPORT     CLOUDY    50  33  52 N7        30.47R
DENTON         CLOUDY    51  32  48 N10       30.43R
WAXAHACHIE     CLOUDY    56  35  45 N14G23    30.41R
GRANBURY       MOCLDY    54  34  46 NW8       30.44R
$$

WESTERN NORTH TEXAS

CITY           SKY/WX    TMP DP  RH WIND       PRES   REMARKS
WICHITA FALLS  CLOUDY    45  31  58 NE10      30.47R WCI  40
VERNON         CLOUDY    47  25  41 N7        30.50R
BRECKENRIDGE   CLOUDY    52  29  41 N5        30.46R
COMANCHE       MOCLDY    52  35  51 N13       30.43R
$$

CENTRAL AND SOUTH CENTRAL TEXAS

CITY           SKY/WX    TMP DP  RH WIND       PRES   REMARKS
AUSTIN/BERGSTM MOCLDY    64  43  46 N10       30.31R
WACO           PTCLDY    57  38  48 N12       30.38R
HILLSBORO      MOCLDY    54  36  51 N7        30.40R
TEMPLE         MOCLDY    59  36  41 N15       30.35R
KILLEEN-GRAY   CLOUDY    61  36  39 N21G28    30.36R
FORT HOOD      CLOUDY    61  37  40 N13       30.36R
GEORGETOWN     PTCLDY    64  39  39 N12       30.33R
LAGO VISTA     CLOUDY    63  39  40 NE8G16    30.33R
SAN MARCOS     PTCLDY    63  45  51 NE10      30.32R
NEW BRAUNFELS  CLOUDY    66  48  52 NE14      30.30R
RANDOLPH AFB   MOCLDY    62  56  79 N5        30.30R
SAN ANTONIO    MOCLDY    67  55  65 N6        30.31R
STINSON        CLEAR     62  54  74 N8        30.28R
PLEASANTON     NOT AVBL
LA GRANGE      PTCLDY    66  56  71 N3        30.28R
GIDDINGS       CLOUDY    65  47  52 N6        30.34R
$$

EAST TEXAS

CITY           SKY/WX    TMP DP  RH WIND       PRES   REMARKS
PARIS          CLOUDY    48  30  49 N14G21    30.43R
CLARKSVILLE    NOT AVBL
TYLER          MOCLDY    56  35  45 N18G29    30.36R
LONGVIEW       PTCLDY    59  38  45 N18G25    30.33R
PALESTINE      CLOUDY    59  40  50 N10       30.35R
NACOGDOCHES    MOCLDY    63  37  39 N10       30.31R
$$

TEXAS HILL COUNTRY AND EDWARDS PLATEAU

CITY           SKY/WX    TMP DP  RH WIND       PRES   REMARKS
LLANO          CLOUDY    63  37  39 NE12      30.40R
HORSESHOE BAY  FAIR      61  38  42 CALM      30.34R
KERRVILLE      CLEAR     62  37  40 NE12G20   30.33R
FREDERICKSBRG  CLEAR     59  38  45 NE7       30.34R
ROCKSPRINGS    NOT AVBL
HONDO          MOCLDY    61  55  81 NE8       30.32R
UVALDE         CLEAR     60  54  80 NE7       30.29R
DEL RIO        PTCLDY    69  52  54 NE5       30.27R
$$

SOUTHEAST TEXAS

CITY           SKY/WX    TMP DP  RH WIND       PRES   REMARKS
COLLEGE STN    CLOUDY    65  42  43 N15       30.30R
CALDWELL       CLOUDY    64  39  39 N10       30.34R
CROCKETT       CLOUDY    64  43  45 N12       30.34R
BRENHAM        CLOUDY    66  53  63 N10       30.30R
HUNTSVILLE     MOCLDY    67  49  52 NW9       30.29R
CONROE         MOCLDY    58  54  86 CALM      30.27R
HOUSTON BUSH   PTCLDY    69  56  62 CALM      30.26R
HOUSTON HOBBY  PTCLDY    66  55  67 W3        30.25R
PERLAND        CLEAR     65  60  84 CALM      30.27R
WHARTON        MOCLDY    65  60  82 CALM      30.27R
$$

THE UPPER TEXAS COAST

CITY           SKY/WX    TMP DP  RH WIND       PRES   REMARKS
ORANGE         PTCLDY    65  60  85 SW3       30.26R
PORT ARTHUR    CLOUDY    63  59  87 SW7       30.25R
GALVESTON      PTCLDY    62  60  93 S5        30.27R
ANGLETON       CLEAR     60  59  96 CALM      30.26R
BAY CITY       PTCLDY    62  61  99 CALM      30.26R
$$

TEXAS COASTAL BEND, RIO GRANDE PLAINS DEEP SOUTH TEXAS

CITY           SKY/WX    TMP DP  RH WIND       PRES   REMARKS
VICTORIA       MOCLDY    62  59  90 SE5       30.27R
BEEVILLE       FAIR      62  56  80 SE3       30.26R
ROCKPORT       CLEAR     62  59  90 SE6       30.26R
PORT ARANSAS   PTCLDY    62  60  96 E6        30.26R
PORT LAVACA    MOCLDY    62  60  94 SE3       30.27R
CORPUS CHRISTI MOCLDY    63  60  90 E8        30.25R
KINGSVILLE NAS MOCLDY    64  61  90 E8        30.25R
COTULLA        PTCLDY    68  57  68 NE9       30.25R
LAREDO         MOCLDY    69  55  60 NE7       30.24R
BROWNSVILLE    PTCLDY    64  62  93 E6        30.23R
PORT ISABEL    PTCLDY    63  61  93 E7        30.23R
HEBBRONVILLE   RAIN      66  59  77 E8        30.25R
MCALLEN        MOCLDY    67  58  72 SE8       30.22R
WESLACO        MOCLDY    68  59  74 SE7       30.23R
FALFURRIAS     MOCLDY    65  59  80 E5        30.24R
EDINBURG       PTCLDY    68  60  74 E7        30.23R
$$



USA.gov is the U.S. government's official web portal to all federal, state and local government web resources and services.